Location: Cz?stochówka
(50.8142°N, 19.0915°E)
Time: 10:40:34
(UTC+00:00)

Cosmos 1805 Rocket - Pass Details

Date: 13 January 2026
Orbit: 599 x 623 km, 82.5° (Epoch: 10 February)

Event Time Altitude Azimuth Distance (km) Brightness Sun altitude
Rises 05:35:13 0° 218° (SW) 2,896 6.8 -10.0°
Reaches altitude 10° 05:37:41 10° 229° (SW) 1,994 5.9 -9.7°
Maximum altitude 05:41:33 29° 290° (WNW) 1,147 4.4 -9.1°
Drops below altitude 10° 05:45:26 10° 352° (N) 2,001 5.9 -8.5°
Sets 05:47:55 0° 3° (N) 2,909 6.8 -8.2°
